DW7831 Weather Reports


time (UTC)temp
F
wind
direction
speed
knots
gust
knots
rain 1hr
in
rain 24hr
in
rain mn
in
humidity
%
barometer
mb
20260508233027 48 246 0.0 0.0 0.00 0.00 0.04 48 1012.3
20260508230019 49 257 3.5 0.0 0.00 0.00 0.04 47 1012.1
20260508224519 49 243 3.5 0.0 0.00 0.00 0.04 46 1012.0
20260508223010 49 207 7.0 0.0 0.00 0.00 0.04 46 1012.2
20260508220015 49 244 5.2 0.0 0.00 0.00 0.04 46 1012.3
20260508214559 49 229 5.2 0.0 0.00 0.00 0.04 45 1012.1
20260508213059 49 256 3.5 0.0 0.00 0.00 0.04 48 1012.1
20260508210048 48 229 4.3 0.0 0.00 0.00 0.04 53 1012.3
20260508204544 47 261 2.6 0.0 0.00 0.00 0.03 55 1012.3
20260508203040 46 218 3.5 0.0 0.00 0.00 0.03 58 1012.2
20260508200031 45 248 4.3 0.0 0.00 0.00 0.03 58 1012.7
20260508194532 44 252 4.3 0.0 0.00 0.00 0.03 58 1012.7
20260508193026 44 227 2.6 0.0 0.00 0.00 0.03 58 1012.8
20260508190018 45 201 5.2 0.0 0.00 0.00 0.03 57 1013.2
20260508184519 44 234 1.7 0.0 0.00 0.00 0.03 54 1013.0
20260508183011 44 229 6.1 0.0 0.00 0.00 0.03 47 1012.9
20260508180108 41 197 4.3 0.0 0.00 0.00 0.03 23 1013.1
20260508174612 40 200 5.2 0.0 0.00 0.00 0.03 16 1013.2
20260508173051 40 191 4.3 0.0 0.00 0.00 0.03 6 1013.2
20260508170045 39 240 0.9 0.0 0.00 0.00 0.03 14 1013.3
20260508164540 39 235 2.6 0.0 0.00 0.00 0.03 20 1013.2
20260508163039 39 242 0.9 0.0 0.00 0.00 0.02 20 1013.2
20260508160032 38 242 1.7 0.0 0.00 0.00 0.02 26 1013.1
20260508154526 38 240 0.9 0.0 0.00 0.00 0.02 31 1013.2
20260508153023 38 238 0.9 0.0 0.00 0.00 0.02 43 1013.2
20260508150018 40 233 3.5 0.0 0.00 0.00 0.00 63 1012.9
20260508144511 43 238 2.6 0.0 0.00 0.00 0.00 61 1012.7
20260508143006 45 236 2.6 0.0 0.00 0.00 0.00 54 1012.2
20260508140100 45 257 0.9 0.0 0.00 0.00 0.00 56 1012.1
20260508134602 45 237 2.6 0.0 0.00 0.00 0.00 57 1012.1
20260508133049 43 230 0.9 0.0 0.00 0.00 0.00 58 1012.2
20260508131645 42 229 1.7 0.0 0.00 0.00 0.00 58 1012.4
20260508130041 41 221 0.0 0.0 0.00 0.00 0.00 58 1012.2
20260508124537 41 205 1.7 0.0 0.00 0.00 0.00 56 1012.5
20260508123033 40 231 2.6 0.0 0.00 0.00 0.00 51 1012.8
20260508121629 39 244 0.9 0.0 0.00 0.00 0.00 39 1012.6
20260508120026 38 282 0.0 0.0 0.00 0.00 0.00 37 1012.6
20260508114522 38 282 0.0 0.0 0.00 0.00 0.00 37 1012.8
20260508113018 37 282 0.0 0.0 0.00 0.00 0.00 37 1012.9
20260508111613 37 279 1.7 0.0 0.00 0.00 0.00 37 1012.9
20260508110016 37 279 0.0 0.0 0.00 0.00 0.00 36 1012.8
20260508104507 37 279 1.7 0.0 0.00 0.00 0.00 35 1012.7
20260508103000 37 285 0.9 0.0 0.00 0.00 0.00 34 1012.5
20260508101559 37 287 0.0 0.0 0.00 0.00 0.00 32 1012.4
20260508100055 37 287 0.0 0.0 0.00 0.00 0.00 32 1012.1
20260508094609 36 304 0.0 0.0 0.00 0.00 0.00 35 1012.0
20260508093047 36 304 0.0 0.0 0.00 0.00 0.00 33 1011.9
20260508091543 35 304 0.0 0.0 0.00 0.00 0.00 28 1011.8
20260508090043 35 304 0.0 0.0 0.00 0.00 0.00 27 1011.8
20260508084535 35 304 0.0 0.0 0.00 0.00 0.00 24 1011.5
20260508083030 34 304 0.0 0.0 0.00 0.00 0.00 20 1011.4
20260508081553 34 304 0.0 0.0 0.00 0.00 0.00 11 1011.4
20260508080022 33 304 0.0 0.0 0.00 0.00 0.00 8 1011.4
20260508074518 33 304 0.0 0.0 0.00 0.00 0.00 5 1011.3
20260508073015 32 305 0.0 0.0 0.00 0.00 0.00 8 1011.5
20260508071525 31 305 0.0 0.0 0.00 0.00 0.00 13 1011.3
20260508070007 31 305 0.0 0.0 0.00 0.00 0.00 16 1011.4
20260508064508 31 305 0.0 0.0 0.00 0.00 0.00 17 1011.1
20260508063117 31 305 0.0 0.0 0.00 0.00 0.00 19 1011.2
20260508061557 32 305 0.0 0.0 0.00 0.00 0.00 20 1011.1
20260508060056 32 305 0.0 0.0 0.00 0.00 0.00 21 1011.1
20260508054549 32 305 0.0 0.0 0.00 0.00 0.00 22 1011.3
20260508053043 32 305 0.0 0.0 0.00 0.00 0.00 23 1011.2
20260508051541 31 305 0.0 0.0 0.00 0.00 0.00 26 1011.2
20260508050037 31 305 0.0 0.0 0.00 0.00 0.00 32 1011.4
20260508044536 31 305 0.0 0.0 0.00 0.00 0.00 36 1011.5
20260508043033 31 305 0.0 0.0 0.00 0.00 0.00 39 1011.3
20260508041531 32 305 0.0 0.0 0.00 0.00 0.00 43 1011.1
20260508040028 32 305 0.0 0.0 0.00 0.00 0.00 48 1011.1
20260508034524 33 305 0.0 0.0 0.00 0.00 0.02 51 1011.1
20260508033022 33 305 0.0 0.0 0.00 0.00 0.02 54 1011.3
20260508031516 34 305 0.0 0.0 0.00 0.00 0.02 56 1011.2
20260508030015 35 305 0.0 0.0 0.00 0.00 0.02 58 1011.1
20260508024517 35 305 0.0 0.0 0.00 0.00 0.02 59 1011.0
20260508023008 36 305 0.0 0.0 0.00 0.00 0.02 62 1011.1
20260508021501 37 305 0.0 0.0 0.00 0.00 0.02 64 1011.0
20260508020105 37 305 0.0 0.0 0.00 0.00 0.02 65 1011.0
20260508014556 38 305 0.0 0.0 0.00 0.00 0.02 65 1010.8
20260508013050 39 305 0.0 0.0 0.00 0.00 0.02 64 1010.7
20260508011545 40 305 0.0 0.0 0.00 0.00 0.02 64 1010.7
20260508010044 41 305 0.0 0.0 0.00 0.00 0.02 62 1010.6
20260508004539 43 305 0.0 0.0 0.00 0.00 0.02 59 1010.5
20260508003034 44 305 0.0 0.0 0.00 0.00 0.02 56 1010.1
20260508001535 45 305 0.0 0.0 0.00 0.00 0.02 52 1009.8
20260508000033 46 305 0.0 0.0 0.00 0.00 0.02 50 1009.8
20260507234533 47 304 0.0 0.0 0.00 0.00 0.02 48 1009.8